Red Bluff, CA

11:57 PM PST on December 12, 2017 (GMT -0800)
Red Bluff Municipal

Weather History for KRBL - March, 2013

Change the Weather History Date:

Wednesday, March 6, 2013

  Actual Average Record
Temperature  
Mean Temperature 52 °F -  
Max Temperature 59 °F 63 °F 82 °F (2015)
Min Temperature 43 °F 42 °F 29 °F (1956)
Degree Days  
Heating Degree Days 14    
Growing Degree Days 2 (Base 50)    
Moisture  
Dew Point 38 °F    
Average Humidity 64    
Maximum Humidity 87    
Minimum Humidity 32    
Precipitation  
Precipitation 0.00 in - - ()
Sea Level Pressure  
Sea Level Pressure 29.88 in    
Wind  
Wind Speed 23 mph (SSE)    
Max Wind Speed 34 mph    
Max Gust Speed 47 mph    
Visibility 10 miles    
Events Rain    
Averages and records for this station are not official NWS values.
T = Trace of Precipitation, MM = Missing Value Source: NWS Daily Summary

Daily Weather History Graph

Daily Weather History Graph

Search for Another Location

Airport or City:

Trip Planner

Search our weather history database for the weather conditions in past years. The results will help you decide how hot, cold, wet, or windy it might be!

Date:

Astronomy

Mar. 06, 2013 Rise Set
Actual Time 6:34 AM PST 6:06 PM PST
Civil Twilight 6:07 AM PST 6:33 PM PST
Nautical Twilight 5:35 AM PST 7:05 PM PST
Astronomical Twilight 5:04 AM PST 7:36 PM PST
Moon 2:48 AM PST (3/6) 12:54 PM PST (3/6)
Length of Visible Light 12h 26m
Length of Day
11h 32m
Waning Crescent, 29% of the Moon is Illuminated
Mar 6
Waning Crescent
Mar 11
New
Mar 19
First Quarter
Mar 27
Full
Apr 2
Last Quarter

Hourly Weather History & Observations

Time (PST) Temp. Windchill Dew Point Humidity Pressure Visibility Wind Dir Wind Speed Gust Speed Precip Events Conditions
12:54 AM 46.9 °F - 43.0 °F 86% 29.68 in 10.0 mi SSE 28.8 mph 42.6 mph 0.03 in Rain Light Rain
1:10 AM 46.4 °F 36.5 °F 42.8 °F 87% 29.69 in 10.0 mi SSE 34.5 mph 42.6 mph 0.00 in Rain Light Rain
1:54 AM 48.0 °F - 44.1 °F 86% 29.69 in 10.0 mi SSE 34.5 mph 47.2 mph 0.00 in   Overcast
2:54 AM 48.0 °F - 43.0 °F 83% 29.70 in 10.0 mi South 25.3 mph 35.7 mph 0.01 in   Partly Cloudy
3:54 AM 46.9 °F - 42.1 °F 83% 29.70 in 10.0 mi SSE 21.9 mph - N/A   Clear
4:54 AM 46.9 °F - 39.0 °F 74% 29.73 in 10.0 mi South 20.7 mph 34.5 mph N/A   Partly Cloudy
5:54 AM 46.0 °F 39.0 °F 39.9 °F 79% 29.74 in 10.0 mi SE 17.3 mph 24.2 mph N/A   Partly Cloudy
6:54 AM 46.9 °F - 41.0 °F 80% 29.78 in 10.0 mi SSE 20.7 mph 29.9 mph N/A   Mostly Cloudy
7:54 AM 48.0 °F - 39.0 °F 71% 29.83 in 10.0 mi SSE 25.3 mph 32.2 mph N/A   Overcast
8:54 AM 48.9 °F - 39.0 °F 69% 29.88 in 10.0 mi SE 19.6 mph 28.8 mph 0.00 in   Mostly Cloudy
9:54 AM 53.1 °F - 37.0 °F 55% 29.91 in 10.0 mi South 20.7 mph 32.2 mph N/A   Mostly Cloudy
10:54 AM 54.0 °F - 37.0 °F 53% 29.93 in 10.0 mi South 20.7 mph 27.6 mph N/A   Overcast
11:54 AM 57.0 °F - 37.0 °F 47% 29.95 in 10.0 mi South 24.2 mph 34.5 mph N/A   Overcast
12:54 PM 57.0 °F - 36.0 °F 45% 29.95 in 10.0 mi SSE 25.3 mph 31.1 mph N/A   Mostly Cloudy
1:54 PM 57.2 °F - 35.6 °F 44% 29.95 in 10.0 mi SSE 24.2 mph 31.1 mph N/A   Scattered Clouds
2:54 PM 55.9 °F - 35.1 °F 45% 29.95 in 10.0 mi SSE 23.0 mph 27.6 mph 0.00 in   Mostly Cloudy
3:54 PM 57.0 °F - 35.1 °F 44% 29.96 in 10.0 mi SSE 23.0 mph - N/A   Mostly Cloudy
4:54 PM 55.9 °F - 34.0 °F 44% 29.96 in 10.0 mi SSE 21.9 mph - N/A   Mostly Cloudy
5:54 PM 53.1 °F - 34.0 °F 48% 29.97 in 10.0 mi SSE 15.0 mph - 0.00 in   Overcast
6:54 PM 51.1 °F - 35.1 °F 54% 29.98 in 10.0 mi SSE 11.5 mph - N/A   Mostly Cloudy
7:54 PM 46.9 °F - 37.0 °F 68% 29.99 in 10.0 mi SE 8.1 mph - N/A   Partly Cloudy
8:54 PM 46.0 °F 41.4 °F 37.0 °F 71% 30.00 in 10.0 mi SE 9.2 mph - N/A   Clear
9:54 PM 45.0 °F 40.1 °F 37.0 °F 74% 30.00 in 10.0 mi SE 9.2 mph - N/A   Clear
10:54 PM 44.1 °F 40.1 °F 36.0 °F 73% 30.00 in 10.0 mi ESE 6.9 mph - N/A   Clear
11:54 PM 43.0 °F 40.3 °F 36.0 °F 76% 30.00 in 10.0 mi WSW 4.6 mph - N/A   Clear